Regional Weather Roundup
Issued by NWS

Home | Current Version | Previous Version | Graphics & Text | Print | Product List | Glossary On
Versions: 1 2 3 4 5 6 7 8 9 10 11 12 13 14 15 16 17 18 19 20 21 22 23 24 25 26 27 28 29 30 31 32 33 34 35 36 37 38 39 40 41 42 43 44 45 46 47 48 49
000
ASUS45 KBOU 190010
RWRCO

WEATHER ROUNDUP FOR COLORADO
NATIONAL WEATHER SERVICE DENVER/BOULDER CO
600 PM MDT WED APR 18 2018

NOTE: "FAIR" INDICATES FEW OR NO CLOUDS BELOW 12000 FEET WITH NO
SIGNIFICANT WEATHER AND/OR OBSTRUCTIONS TO VISIBILITY.

COZ001>005-013-030-031-190100-
...NORTHWEST COLORADO...

CITY           SKY/WX    TMP DP  RH WIND       PRES   REMARKS
CRAIG          FAIR      51  18  27 NE7       30.15F
HAYDEN         FAIR      51  11  20 VRB3      30.17F
MEEKER         FAIR      54  14  20 NE7       30.12F
RANGELY        FAIR      56  12  17 NE3       30.10F
RABBIT EARS PA FAIR      32   9  37 SE3       30.24S
STEAMBOAT SPGS FAIR      49  11  22 CALM      30.16F
WALDEN         FAIR      43  -6  13 W5        30.21S
$$

COZ006>008-011-190100-
...WEST CENTRAL VALLEYS...

CITY           SKY/WX    TMP DP  RH WIND       PRES   REMARKS
GRAND JUNCTION FAIR      58   6  12 W9        30.09F
MONTROSE       FAIR      56  -7   7 N7        30.12F
EAGLE          FAIR      54  11  18 CALM      30.15F
RIFLE          FAIR      57  11  16 NW3       30.10F
DELTA          FAIR      64  -6   6 CALM      30.09F
NUCLA          FAIR      61  -4   7 SW7       30.13F
$$

COZ017>023-064>068-190100-
...SOUTHWEST COLORADO...

CITY           SKY/WX    TMP DP  RH WIND       PRES   REMARKS
DURANGO        FAIR      56  -9   7 SE7       30.16F
CORTEZ         FAIR      61 -25   2 S12G17    30.12F
PAGOSA SPRINGS FAIR      56 -20   4 SW6       30.19F
TELLURIDE      FAIR      51   3  14 W8        30.20S
WOLF CREEK PAS FAIR      32   0  25 SW17G24   30.37S WCI  21
$$

COZ009-010-012-014-032>034-037-058>063-190100-
...CENTRAL COLORADO...

CITY           SKY/WX    TMP DP  RH WIND       PRES   REMARKS
ASPEN          FAIR      52   6  15 VRB6      30.12F
BUENA VISTA    FAIR      54  -5   9 SE16G24   30.16S
COPPER MTN     NOT AVBL
BERTHOUD PASS  FAIR      21  10  63 NE8G24    30.29F WCI  12
COTTONWOOD PAS FAIR      50 -13   7 SE21G29   30.21F
GUNNISON       FAIR      56  -2   9 S3        30.12F
GRANBY         FAIR      46   1  16 CALM      30.20F
KREMMLING      FAIR      54   0  11 E6        30.18F
LEADVILLE      FAIR      44   9  23 S13G18    30.19F
MONARCH PASS   FAIR      36  -2  20 SE8       30.40S
SALIDA         FAIR      57  -7   7 S12G22    30.23S
SUNLIGHT       FAIR      32  12  43 W3        30.28S
WILKERSON PASS FAIR      36  -9  14 CALM      30.32S
$$

COZ069>075-190100-
...SAN LUIS VALLEY/SANGRE DE CRISTO MOUNTAINS...

CITY           SKY/WX    TMP DP  RH WIND       PRES   REMARKS
ALAMOSA        FAIR      57  -6   7 SE12      30.14F
DEL NORTE      NOT AVBL
LA VETA PASS   FAIR      36   5  27 NE13G23   30.40S
SAGUACHE       NOT AVBL
$$

COZ035-036-038>040-190100-
...NORTHERN COLORADO FRONT RANGE...

CITY           SKY/WX    TMP DP  RH WIND       PRES   REMARKS
DENVER INTL AP FAIR      55  11  17 E9        30.20S
AURORA         MOSUNNY   54   7  15 E8        30.21S
FRONT RANGE AP MOSUNNY   55   9  15 NE3       30.22
ERIE MUNI ARPT FAIR      56   4  12 NE5       30.25S
BOULDER MUN AP FAIR      55  12  18 E5        30.20R
CENTENNIAL     FAIR      52  10  18 E9G20     30.21R
BROOMFIELD     MOSUNNY   55   9  15 E7        30.22R
FORT COLLINS   FAIR      58  12  16 VRB7      30.20S
LONGMONT       FAIR      59  10  14 E3        30.21S
$$

COZ041-046-047-076>085-087-088-190100-
...PIKES PEAK/PALMER DIVIDE AND SOUTHERN FOOTHILLS...

CITY           SKY/WX    TMP DP  RH WIND       PRES   REMARKS
COLO. SPRINGS  FAIR      53  -3  10 SE14      30.22S
A. F. ACADEMY  FAIR      52  -7   8 S17       30.21R
SCHRIEVER AFB  NOT AVBL
CHEYENNE MTN   FAIR      47  -4  12 SE17G23   30.17S
ELLICOTT         N/A    N/A N/A N/A SE12      30.22S
FALCON         FAIR      52  -3  10 SE10      30.24S
FORT CARSON    FAIR      55  -8   7 SE10      30.20S
LIMON          FAIR      53   9  17 N9        30.23S
MONUMENT HILL  FAIR      46   5  18 E13G18    30.24S
CANON CITY     FAIR      59   3  10 E8G22     30.19S
WALSENBURG     NOT AVBL
TRINIDAD       FAIR      57   1  10 E14G21    30.20R
$$

COZ042>045-048>051-090-091-190100-
...NORTHEAST COLORADO...

CITY           SKY/WX    TMP DP  RH WIND       PRES   REMARKS
GREELEY ARPT   FAIR      57   7  13 N5        30.20S
AKRON          FAIR      53  17  24 N16G22    30.23R
BURLINGTON     FAIR      56  17  21 N15G24    30.23R
WRAY           FAIR      57  18  21 NW12G22   30.22S
YUMA           FAIR      52  18  25 N15       30.22S
STERLING       FAIR      54  19  26 NE13      30.21S
HOLYOKE        FAIR      59  21  23 N17G24    30.21R
FORT MORGAN    FAIR      55  10  16 NE15G21   30.22S
$$

COZ086-089-092>099-190100-
...SOUTHEAST COLORADO...

CITY           SKY/WX    TMP DP  RH WIND       PRES   REMARKS
PUEBLO         FAIR      61   1   9 SE12      30.19S
LA JUNTA       FAIR      62   1   8 NE8       30.20F
LAMAR          FAIR      63   7  11 N7G20     30.19S
SPRINGFIELD      N/A     58   6  12 N9        30.23R
$$




USA.gov is the U.S. government's official web portal to all federal, state and local government web resources and services.